Orbital Elements at Epoch 2459200.5 (2020-Dec-17.0) TDB
Reference: JPL 17 (heliocentric ecliptic J2000)
Element | Value | Uncertainty (1-sigma) | Units |
e | .2589594266310523 | 5.4525e-08 | |
a | 2.665124778892002 | 1.6849e-08 | au |
q | 1.974965594249919 | 1.5253e-07 | au |
i | .4994122508727892 | 5.3888e-06 | deg |
node | 348.8891231483418 | 0.00059405 | deg |
peri | 356.7616024168957 | 0.00059412 | deg |
M | 332.5043762589953 | 1.2594e-05 | deg |
tp | 2459321.876838978880 (2021-Apr-17.37683898) | 5.6383e-05 | TDB |
period | 1589.186062625398 4.35 | 1.507e-05 4.126e-08 | d yr |
n | .2265310579211007 | 2.1482e-09 | deg/d |
Q | 3.355283963534084 | 2.1212e-08 | au |
|
| | Orbit Determination Parameters
Additional Information
|